TimeCDT,TemperatureF,Dew PointF,Humidity,Sea Level PressureIn,VisibilityMPH,Wind Direction,Wind SpeedMPH,Gust SpeedMPH,PrecipitationIn,Events,Conditions,WindDirDegrees,DateUTC
12:53 AM,34.0,32.0,92,30.18,10.0,Calm,Calm,-,N/A,,Clear,0,2011-10-21 05:53:00
1:53 AM,33.1,32.0,96,30.18,10.0,Calm,Calm,-,N/A,,Clear,0,2011-10-21 06:53:00
2:53 AM,34.0,32.0,92,30.19,10.0,Calm,Calm,-,N/A,,Clear,0,2011-10-21 07:53:00
4:06 AM,33.8,32.0,93,30.17,10.0,Calm,Calm,-,N/A,,Partly Cloudy,0,2011-10-21 09:06:00
4:53 AM,33.1,32.0,96,30.21,10.0,Calm,Calm,-,N/A,,Clear,0,2011-10-21 09:53:00
5:53 AM,32.0,30.9,96,30.22,7.0,Calm,Calm,-,N/A,,Clear,0,2011-10-21 10:53:00
6:24 AM,32.0,30.2,93,30.21,1.5,Calm,Calm,-,N/A,,Clear,0,2011-10-21 11:24:00
7:14 AM,30.2,30.2,100,30.23,0.2,Calm,Calm,-,N/A,Fog,Light Freezing Fog,0,2011-10-21 12:14:00
7:53 AM,35.1,35.1,100,30.27,0.5,Calm,Calm,-,N/A,Fog,Fog,0,2011-10-21 12:53:00
8:00 AM,35.6,35.6,100,30.25,2.5,Calm,Calm,-,N/A,,Clear,0,2011-10-21 13:00:00
8:07 AM,37.4,37.4,100,30.25,9.0,Calm,Calm,-,N/A,,Clear,0,2011-10-21 13:07:00
8:53 AM,50.0,43.0,77,30.29,10.0,Calm,Calm,-,N/A,,Clear,0,2011-10-21 13:53:00
9:53 AM,57.9,34.0,41,30.29,10.0,NNE,3.5,-,N/A,,Clear,20,2011-10-21 14:53:00
10:53 AM,62.1,37.9,41,30.30,10.0,Calm,Calm,-,N/A,,Clear,0,2011-10-21 15:53:00
11:53 AM,66.0,33.1,29,30.28,10.0,WNW,4.6,-,N/A,,Clear,290,2011-10-21 16:53:00
12:53 PM,68.0,34.0,28,30.26,10.0,ENE,6.9,-,N/A,,Clear,60,2011-10-21 17:53:00
1:53 PM,69.1,33.1,26,30.22,10.0,ENE,8.1,-,N/A,,Clear,70,2011-10-21 18:53:00
2:53 PM,71.1,34.0,26,30.20,10.0,Variable,5.8,-,N/A,,Clear,0,2011-10-21 19:53:00
3:53 PM,72.0,34.0,25,30.19,10.0,NNE,6.9,-,N/A,,Clear,20,2011-10-21 20:53:00
4:53 PM,72.0,34.0,25,30.18,10.0,NNE,4.6,-,N/A,,Clear,30,2011-10-21 21:53:00
5:53 PM,68.0,36.0,31,30.19,10.0,NNW,3.5,-,N/A,,Clear,330,2011-10-21 22:53:00
6:53 PM,59.0,39.0,48,30.19,10.0,NNE,3.5,-,N/A,,Clear,30,2011-10-21 23:53:00
7:53 PM,50.0,41.0,71,30.19,10.0,Calm,Calm,-,N/A,,Clear,0,2011-10-22 00:53:00
8:53 PM,46.0,39.9,79,30.20,10.0,Calm,Calm,-,N/A,,Clear,0,2011-10-22 01:53:00
9:53 PM,46.0,44.1,93,30.21,10.0,Calm,Calm,-,N/A,,Clear,0,2011-10-22 02:53:00
10:53 PM,46.0,43.0,89,30.20,10.0,Calm,Calm,-,N/A,,Clear,0,2011-10-22 03:53:00
11:53 PM,45.0,44.1,97,30.19,10.0,Calm,Calm,-,N/A,,Clear,0,2011-10-22 04:53:00